{"data":{"norad_id":68461,"epoch":"2026-05-25T03:44:27.086784Z","epoch_age_seconds":64643,"freshness":"FRESH","line1":"1 68461U 26067AX  26145.15586906  .00006803  00000+0  33961-3 0  9995","line2":"2 68461  97.4535 103.9238 0005271 127.3612 232.8102 15.17802600  8447","mean_motion":15.178026,"eccentricity":0.0005271,"inclination_deg":97.4535,"raan_deg":103.9238,"arg_perigee_deg":127.3612,"mean_anomaly_deg":232.8102,"bstar":0.00033961,"rev_number":844,"period_min":94.87399744868,"perigee_km":508.85115529096,"apogee_km":516.11524710706,"semimajor_km":6890.620201199,"source":"CELESTRAK","updated_at":"2026-05-25T13:38:07.845839Z"}}